EN

Hourly Weather Almondbank

Today, 19 January, Tuesday

Time Temperature Precipitation Wind Pressure Humidity
00:00 +3°C° 0 mm 1 mps 745 mmHg 97%
01:00 +3°C° 0 mm 1 mps 744 mmHg 96%
02:00 +2°C° 0 mm 1 mps 743 mmHg 96%
03:00 +2°C° 0 mm 1 mps 743 mmHg 95%
04:00 +2°C° 0 mm 1 mps 742 mmHg 95%
05:00 +1°C° 0 mm 1 mps 742 mmHg 94%
06:00 +1°C° 0 mm 1 mps 741 mmHg 94%
07:00 +1°C° 0 mm 1 mps 741 mmHg 94%
08:00 +1°C° 0 mm 1 mps 741 mmHg 93%
09:00 +1°C° 0 mm 1 mps 740 mmHg 93%
10:00 +2°C° 0 mm 1 mps 740 mmHg 92%
11:00 +2°C° 0 mm 1 mps 740 mmHg 92%
12:00 +3°C° 0 mm 1 mps 739 mmHg 91%
13:00 +3°C° 0 mm 1 mps 739 mmHg 91%
14:00 +2°C° 0 mm 0 mps 738 mmHg 91%
15:00 +1°C° 0 mm 0 mps 737 mmHg 91%
16:00 +1°C° 0 mm 0 mps 736 mmHg 90%
17:00 +2°C° 0 mm 1 mps 736 mmHg 90%
18:00 +1°C° 0 mm 1 mps 736 mmHg 89%
19:00 +1°C° 0 mm 1 mps 735 mmHg 88%
20:00 +1°C° 0 mm 1 mps 735 mmHg 88%
21:00 0°C° 0 mm 1 mps 734 mmHg 87%
22:00 0°C° 0 mm 1 mps 734 mmHg 86%
23:00 0°C° 0 mm 1 mps 734 mmHg 85%

Tomorrow, 20 January, Wednesday

Time Temperature Precipitation Wind Pressure Humidity
00:00 0°C° 0 mm 1 mps 734 mmHg 84%
01:00 0°C° 0 mm 1 mps 733 mmHg 83%
02:00 0°C° 0 mm 1 mps 733 mmHg 82%
03:00 0°C° 0 mm 1 mps 733 mmHg 82%
04:00 0°C° 0 mm 1 mps 732 mmHg 81%
05:00 0°C° 0 mm 1 mps 732 mmHg 81%
06:00 0°C° 0 mm 1 mps 732 mmHg 81%
07:00 0°C° 0 mm 1 mps 732 mmHg 82%
08:00 0°C° 0 mm 1 mps 732 mmHg 82%
09:00 0°C° 0 mm 1 mps 732 mmHg 83%
10:00 0°C° 0 mm 1 mps 732 mmHg 83%
11:00 +1°C° 0 mm 1 mps 732 mmHg 83%
12:00 +2°C° 0 mm 1 mps 731 mmHg 82%
13:00 +2°C° 0 mm 1 mps 731 mmHg 83%
14:00 +2°C° 0 mm 1 mps 731 mmHg 84%
15:00 +1°C° 0 mm 2 mps 730 mmHg 85%
16:00 +1°C° 0 mm 2 mps 730 mmHg 85%
17:00 -1°C° 0 mm 2 mps 729 mmHg 86%
18:00 -1°C° 0 mm 2 mps 729 mmHg 86%
19:00 -1°C° 0 mm 3 mps 728 mmHg 87%
20:00 0°C° 0 mm 3 mps 727 mmHg 88%
21:00 0°C° 0 mm 3 mps 727 mmHg 89%
22:00 -1°C° 0.5 mm 4 mps 726 mmHg 91%
23:00 -1°C° 0.5 mm 4 mps 725 mmHg 94%

Day after tomorrow, 21 January, Thursday

Time Temperature Precipitation Wind Pressure Humidity
00:00 0°C° 0.5 mm 4 mps 724 mmHg 97%
01:00 0°C° 1.7 mm 5 mps 723 mmHg 96%
02:00 -1°C° 1.7 mm 7 mps 722 mmHg 96%
03:00 -1°C° 1.7 mm 8 mps 721 mmHg 95%
04:00 -1°C° 0.8 mm 8 mps 721 mmHg 91%
05:00 -1°C° 0.8 mm 7 mps 720 mmHg 88%
06:00 -1°C° 0.8 mm 7 mps 720 mmHg 85%
07:00 -1°C° 0.1 mm 6 mps 720 mmHg 85%
08:00 -1°C° 0.1 mm 6 mps 720 mmHg 85%
09:00 0°C° 0.1 mm 5 mps 721 mmHg 85%
10:00 -1°C° 0.1 mm 6 mps 722 mmHg 84%
11:00 -1°C° 0.1 mm 6 mps 722 mmHg 83%
12:00 -1°C° 0.1 mm 6 mps 723 mmHg 82%
13:00 -1°C° 0 mm 6 mps 724 mmHg 81%
14:00 -1°C° 0 mm 6 mps 724 mmHg 81%
15:00 0°C° 0 mm 5 mps 725 mmHg 81%
16:00 0°C° 0 mm 5 mps 725 mmHg 81%
17:00 -1°C° 0 mm 5 mps 725 mmHg 82%
18:00 -1°C° 0 mm 4 mps 726 mmHg 82%
19:00 -1°C° 0 mm 4 mps 726 mmHg 83%
20:00 -2°C° 0 mm 4 mps 727 mmHg 84%
21:00 -2°C° 0 mm 4 mps 727 mmHg 85%
22:00 -2°C° 0 mm 4 mps 727 mmHg 85%
23:00 -2°C° 0 mm 4 mps 728 mmHg 85%

22 January, Friday

Time Temperature Precipitation Wind Pressure Humidity
00:00 -2°C° 0 mm 4 mps 729 mmHg 85%
01:00 -2°C° 0 mm 4 mps 729 mmHg 85%
02:00 -2°C° 0 mm 4 mps 730 mmHg 84%
03:00 -2°C° 0 mm 4 mps 730 mmHg 84%
04:00 -2°C° 0 mm 4 mps 731 mmHg 85%
05:00 -3°C° 0 mm 4 mps 732 mmHg 85%
06:00 -3°C° 0 mm 4 mps 732 mmHg 85%
07:00 -2°C° 0 mm 3 mps 733 mmHg 85%
08:00 -2°C° 0 mm 3 mps 733 mmHg 86%
09:00 -2°C° 0 mm 3 mps 734 mmHg 86%
10:00 -2°C° 0 mm 3 mps 734 mmHg 85%
11:00 -1°C° 0 mm 3 mps 735 mmHg 84%
12:00 -1°C° 0 mm 3 mps 735 mmHg 83%
13:00 -1°C° 0 mm 3 mps 735 mmHg 83%
14:00 -1°C° 0 mm 2 mps 735 mmHg 84%
15:00 -1°C° 0 mm 2 mps 736 mmHg 85%
16:00 -2°C° 0 mm 2 mps 736 mmHg 85%
17:00 -3°C° 0 mm 2 mps 736 mmHg 85%
18:00 -3°C° 0 mm 2 mps 737 mmHg 85%
19:00 -4°C° 0 mm 2 mps 737 mmHg 84%
20:00 -4°C° 0 mm 2 mps 737 mmHg 84%
21:00 -4°C° 0 mm 2 mps 737 mmHg 84%
22:00 -4°C° 0 mm 2 mps 737 mmHg 84%
23:00 -5°C° 0 mm 2 mps 737 mmHg 83%

23 January, Saturday

Time Temperature Precipitation Wind Pressure Humidity
00:00 -5°C° 0 mm 2 mps 737 mmHg 83%
01:00 -5°C° 0 mm 2 mps 737 mmHg 84%
02:00 -5°C° 0 mm 2 mps 737 mmHg 85%
03:00 -5°C° 0 mm 2 mps 737 mmHg 85%
04:00 -5°C° 0 mm 2 mps 737 mmHg 86%
05:00 -5°C° 0 mm 2 mps 737 mmHg 87%
06:00 -3°C° 0 mm 1 mps 737 mmHg 88%
07:00 -3°C° 0 mm 1 mps 737 mmHg 88%
08:00 -3°C° 0 mm 1 mps 737 mmHg 88%
09:00 -3°C° 0 mm 1 mps 737 mmHg 89%
10:00 -4°C° 0 mm 2 mps 737 mmHg 86%
11:00 -3°C° 0 mm 2 mps 737 mmHg 83%
12:00 -2°C° 0 mm 2 mps 737 mmHg 81%
13:00 -2°C° 0 mm 2 mps 737 mmHg 81%
14:00 -2°C° 0 mm 2 mps 737 mmHg 82%
15:00 -2°C° 0 mm 2 mps 737 mmHg 82%
16:00 -2°C° 0 mm 2 mps 736 mmHg 84%
17:00 -2°C° 0 mm 2 mps 736 mmHg 87%
18:00 -3°C° 0 mm 2 mps 736 mmHg 89%
19:00 -4°C° 0 mm 3 mps 736 mmHg 87%
20:00 -4°C° 0 mm 3 mps 736 mmHg 86%
21:00 -4°C° 0 mm 3 mps 736 mmHg 85%
22:00 -4°C° 0 mm 3 mps 736 mmHg 85%
23:00 -4°C° 0 mm 2 mps 735 mmHg 85%

24 January, Sunday

Time Temperature Precipitation Wind Pressure Humidity
00:00 -4°C° 0 mm 2 mps 735 mmHg 86%
01:00 -4°C° 0 mm 2 mps 735 mmHg 88%
02:00 -4°C° 0 mm 2 mps 735 mmHg 90%
03:00 -4°C° 0 mm 2 mps 735 mmHg 93%
04:00 -4°C° 0 mm 2 mps 735 mmHg 93%
05:00 -4°C° 0 mm 2 mps 735 mmHg 94%
06:00 -2°C° 0 mm 1 mps 735 mmHg 94%
07:00 -2°C° 0 mm 1 mps 735 mmHg 94%
08:00 -2°C° 0 mm 1 mps 735 mmHg 94%
09:00 -2°C° 0 mm 1 mps 736 mmHg 95%
10:00 -1°C° 0.1 mm 1 mps 736 mmHg 93%
11:00 -2°C° 0.1 mm 2 mps 736 mmHg 92%
12:00 -2°C° 0.1 mm 2 mps 736 mmHg 91%
13:00 -1°C° 0 mm 2 mps 737 mmHg 92%
14:00 -1°C° 0 mm 2 mps 737 mmHg 92%
15:00 +1°C° 0 mm 1 mps 737 mmHg 93%
16:00 -1°C° 0 mm 2 mps 737 mmHg 93%
17:00 -2°C° 0 mm 2 mps 738 mmHg 94%
18:00 -2°C° 0 mm 2 mps 738 mmHg 95%
19:00 -2°C° 0 mm 2 mps 739 mmHg 94%
20:00 -2°C° 0 mm 2 mps 739 mmHg 93%
21:00 -3°C° 0 mm 2 mps 740 mmHg 92%
22:00 -3°C° 0 mm 2 mps 740 mmHg 92%
23:00 -3°C° 0 mm 2 mps 740 mmHg 92%
Show more